GW5237 Weather Reports


time (UTC)temp
C
wind
direction
speed
KPH
gust
KPH
rain 1hr
cm
rain 24hr
cm
rain mn
cm
humidity
%
barometer
mb
20260506015345 18 107 3.2 3.2 0.00 0.00 0.00 76 1017.1
20260506014842 18 180 4.8 4.8 0.00 0.00 0.00 75 1016.9
20260506014339 18 210 1.6 4.8 0.00 0.00 0.00 75 1017.0
20260506013835 18 189 1.6 3.2 0.00 0.00 0.00 74 1017.2
20260506013333 18 106 3.2 6.4 0.00 0.00 0.00 74 1017.3
20260506012829 18 144 1.6 1.6 0.00 0.00 0.00 74 1017.0
20260506012326 18 106 1.6 1.6 0.00 0.00 0.00 73 1016.9
20260506011824 18 107 3.2 4.8 0.00 0.00 0.00 73 1017.1
20260506011320 18 126 1.6 3.2 0.00 0.00 0.00 73 1017.0
20260506010818 18 98 1.6 1.6 0.00 0.00 0.00 73 1016.9
20260506010315 18 210 4.8 6.4 0.00 0.00 0.00 72 1016.9
20260506005812 18 193 8.0 9.7 0.00 0.00 0.00 72 1017.0
20260506005309 18 192 3.2 4.8 0.00 0.00 0.00 72 1016.8
20260506004805 18 245 6.4 6.4 0.00 0.00 0.00 72 1016.9
20260506004303 19 201 6.4 6.4 0.00 0.00 0.00 71 1016.6
20260506003759 19 124 3.2 4.8 0.00 0.00 0.00 70 1016.6
20260506003255 19 185 1.6 3.2 0.00 0.00 0.00 70 1016.5
20260506002751 19 202 1.6 3.2 0.00 0.00 0.00 69 1016.7
20260506002248 19 236 3.2 4.8 0.00 0.00 0.00 69 1016.7
20260506001743 20 181 4.8 4.8 0.00 0.00 0.00 68 1016.6
20260506001241 20 214 4.8 6.4 0.00 0.00 0.00 68 1016.6
20260506000738 20 71 3.2 4.8 0.00 0.00 0.00 67 1016.6
20260506000235 20 215 3.2 4.8 0.00 0.00 0.00 67 1016.7
20260505235732 20 206 6.4 9.7 0.00 0.00 0.00 66 1016.5
20260505235230 20 226 6.4 6.4 0.00 0.00 0.00 66 1016.5
20260505234726 20 209 4.8 6.4 0.00 0.00 0.00 66 1016.7
20260505234223 21 182 6.4 11.3 0.00 0.00 0.00 65 1016.7
20260505233720 21 248 11.3 14.5 0.00 0.00 0.00 65 1016.8
20260505233219 21 212 6.4 11.3 0.00 0.00 0.00 64 1016.8
20260505232715 21 177 3.2 4.8 0.00 0.00 0.00 64 1016.5
20260505232213 21 76 3.2 3.2 0.00 0.00 0.00 64 1016.6
20260505231709 21 174 6.4 6.4 0.00 0.00 0.00 63 1016.5
20260505231209 21 160 8.0 20.9 0.00 0.00 0.00 63 1016.8
20260505230706 21 196 9.7 14.5 0.00 0.00 0.00 62 1016.6
20260505230202 22 220 6.4 11.3 0.00 0.00 0.00 62 1016.7
20260505225659 22 33 1.6 1.6 0.00 0.00 0.00 62 1016.7
20260505225156 22 198 11.3 14.5 0.00 0.00 0.00 62 1016.6
20260505224651 22 210 6.4 9.7 0.00 0.00 0.00 61 1016.6
20260505224149 22 175 9.7 11.3 0.00 0.00 0.00 61 1016.7
20260505223647 22 204 9.7 11.3 0.00 0.00 0.00 61 1016.6
20260505223142 22 142 8.0 14.5 0.00 0.00 0.00 60 1016.7
20260505222638 22 205 3.2 4.8 0.00 0.00 0.00 60 1016.6
20260505222135 23 209 6.4 9.7 0.00 0.00 0.00 60 1016.5
20260505221631 23 202 8.0 12.9 0.00 0.00 0.00 59 1016.5
20260505221128 23 208 8.0 11.3 0.00 0.00 0.00 59 1016.4
20260505220626 23 208 9.7 11.3 0.00 0.00 0.00 59 1016.5
20260505220123 23 150 3.2 3.2 0.00 0.00 0.00 59 1016.6
20260505215620 23 107 6.4 11.3 0.00 0.00 0.00 59 1016.4
20260505215118 23 94 3.2 6.4 0.00 0.00 0.00 58 1016.5
20260505214616 23 179 6.4 9.7 0.00 0.00 0.00 58 1016.5
20260505214113 23 119 3.2 4.8 0.00 0.00 0.00 58 1016.5
20260505213611 23 202 12.9 17.7 0.00 0.00 0.00 57 1016.4
20260505213107 24 228 3.2 6.4 0.00 0.00 0.00 56 1016.4
20260505212603 23 231 9.7 11.3 0.00 0.00 0.00 56 1016.3
20260505212101 23 232 9.7 14.5 0.00 0.00 0.00 57 1016.3
20260505211552 23 130 9.7 12.9 0.00 0.00 0.00 58 1016.4
20260505211049 24 209 12.9 17.7 0.00 0.00 0.00 57 1016.4
20260505210545 24 202 12.9 20.9 0.00 0.00 0.00 56 1016.3
20260505210043 24 147 4.8 9.7 0.00 0.00 0.00 56 1016.2
20260505205535 23 213 6.4 14.5 0.00 0.00 0.00 57 1016.3
20260505205032 24 201 9.7 14.5 0.00 0.00 0.00 55 1016.5
20260505204530 24 194 9.7 11.3 0.00 0.00 0.00 55 1016.4
20260505204027 24 102 3.2 3.2 0.00 0.00 0.00 56 1016.4
20260505203523 23 152 4.8 4.8 0.00 0.00 0.00 57 1016.5
20260505203021 24 209 6.4 11.3 0.00 0.00 0.00 55 1016.4
20260505202516 25 183 6.4 9.7 0.00 0.00 0.00 54 1016.4
20260505202012 25 211 12.9 14.5 0.00 0.00 0.00 52 1016.5
20260505201510 25 214 9.7 14.5 0.00 0.00 0.00 54 1016.4
20260505201007 24 145 4.8 6.4 0.00 0.00 0.00 54 1016.5
20260505200505 24 303 3.2 4.8 0.00 0.00 0.00 54 1016.5
20260505200001 25 245 9.7 11.3 0.00 0.00 0.00 51 1016.6
20260505195458 25 103 1.6 3.2 0.00 0.00 0.00 51 1016.7
20260505194955 25 113 8.0 12.9 0.00 0.00 0.00 51 1016.7
20260505194453 25 198 8.0 14.5 0.00 0.00 0.00 50 1016.8
20260505193952 25 172 6.4 11.3 0.00 0.00 0.00 50 1016.7
20260505193450 25 125 8.0 11.3 0.00 0.00 0.00 50 1016.8
20260505192947 25 228 8.0 12.9 0.00 0.00 0.00 50 1017.0
20260505192446 25 186 17.7 25.7 0.00 0.00 0.00 49 1017.2
20260505191943 25 207 3.2 6.4 0.00 0.00 0.00 50 1017.1
20260505191442 26 162 4.8 6.4 0.00 0.00 0.00 49 1017.1
20260505190938 26 187 14.5 16.1 0.00 0.00 0.00 49 1017.1
20260505190433 26 143 6.4 9.7 0.00 0.00 0.00 49 1017.3
20260505185929 26 253 4.8 6.4 0.00 0.00 0.00 49 1017.5
20260505185427 26 156 4.8 6.4 0.00 0.00 0.00 50 1017.3
20260505184922 25 310 14.5 17.7 0.00 0.00 0.00 49 1017.4
20260505184419 25 211 14.5 20.9 0.00 0.00 0.00 49 1017.4
20260505183916 26 222 8.0 11.3 0.00 0.00 0.00 50 1017.5
20260505183413 26 280 4.8 6.4 0.00 0.00 0.00 50 1017.5
20260505182910 26 194 9.7 11.3 0.00 0.00 0.00 50 1017.5
20260505182407 26 197 14.5 16.1 0.00 0.00 0.00 49 1017.4
20260505181903 26 133 4.8 6.4 0.00 0.00 0.00 48 1017.4
20260505181400 26 185 4.8 6.4 0.00 0.00 0.00 51 1017.4
20260505180857 26 193 8.0 12.9 0.00 0.00 0.00 49 1017.4
20260505180353 25 210 1.6 3.2 0.00 0.00 0.00 53 1017.5
20260505175850 25 185 9.7 12.9 0.00 0.00 0.00 53 1017.6
20260505175346 26 181 6.4 6.4 0.00 0.00 0.00 52 1017.4
20260505174843 25 143 3.2 4.8 0.00 0.00 0.00 52 1017.8
20260505174341 25 150 4.8 4.8 0.00 0.00 0.00 52 1017.5
20260505173836 25 72 6.4 11.3 0.00 0.00 0.00 52 1017.5
20260505173332 26 196 16.1 20.9 0.00 0.00 0.00 52 1017.7
20260505172830 26 229 6.4 12.9 0.00 0.00 0.00 51 1017.7
20260505172328 26 168 3.2 3.2 0.00 0.00 0.00 51 1017.6
20260505171827 26 212 4.8 6.4 0.00 0.00 0.00 51 1017.7
20260505171324 26 180 4.8 4.8 0.00 0.00 0.00 51 1017.6
20260505170820 26 90 1.6 3.2 0.00 0.00 0.00 51 1017.5
20260505170318 26 206 8.0 9.7 0.00 0.00 0.00 50 1017.5
20260505165813 25 144 4.8 6.4 0.00 0.00 0.00 50 1017.7
20260505165309 25 140 3.2 3.2 0.00 0.00 0.00 53 1017.5
20260505164804 25 179 12.9 16.1 0.00 0.00 0.00 52 1017.8
20260505164302 25 202 9.7 11.3 0.00 0.00 0.00 52 1017.8
20260505163800 25 71 1.6 1.6 0.00 0.00 0.00 53 1017.7
20260505163258 25 126 6.4 9.7 0.00 0.00 0.00 52 1017.8
20260505162755 25 145 1.6 4.8 0.00 0.00 0.00 52 1017.9
20260505162252 25 197 6.4 11.3 0.00 0.00 0.00 50 1017.9
20260505161749 25 204 9.7 12.9 0.00 0.00 0.00 51 1018.2
20260505161247 26 81 4.8 6.4 0.00 0.00 0.00 50 1018.0
20260505160744 25 117 4.8 6.4 0.00 0.00 0.00 53 1017.9
20260505160242 25 218 6.4 6.4 0.00 0.00 0.00 53 1018.0
20260505153221 24 238 6.4 11.3 0.00 0.00 0.00 54 1018.2
20260505152718 24 72 3.2 4.8 0.00 0.00 0.00 56 1018.5
20260505152214 24 99 1.6 1.6 0.00 0.00 0.00 56 1018.3
20260505151709 24 359 4.8 6.4 0.00 0.00 0.00 57 1018.3
20260505151206 24 197 9.7 12.9 0.00 0.00 0.00 55 1018.5
20260505150657 23 215 3.2 4.8 0.00 0.00 0.00 57 1018.6
20260505150155 23 261 8.0 11.3 0.00 0.00 0.00 57 1018.6
20260505140622 22 250 9.7 11.3 0.00 0.00 0.00 61 1018.6
20260505140120 22 198 6.4 6.4 0.00 0.00 0.00 61 1018.4
20260505125036 20 149 1.6 1.6 0.00 0.00 0.00 72 1018.3
20260505124532 20 205 4.8 6.4 0.00 0.00 0.00 72 1018.6
20260505124029 20 92 1.6 1.6 0.00 0.00 0.00 73 1018.5
20260505123525 20 180 1.6 3.2 0.00 0.00 0.00 74 1018.5
20260505123022 19 122 3.2 3.2 0.00 0.00 0.00 74 1018.4
20260505122519 18 171 3.2 3.2 0.00 0.00 0.00 76 1018.4
20260505122016 18 198 4.8 6.4 0.00 0.00 0.00 76 1018.4
20260505121512 18 210 1.6 3.2 0.00 0.00 0.00 77 1018.3
20260505121009 17 202 3.2 4.8 0.00 0.00 0.00 78 1018.4
20260505120506 17 120 1.6 1.6 0.00 0.00 0.00 79 1018.4
20260505120006 17 83 0.0 1.6 0.00 0.00 0.00 81 1018.3
20260505115501 16 189 3.2 4.8 0.00 0.00 0.00 83 1018.4
20260505114959 16 117 1.6 1.6 0.00 0.00 0.00 86 1018.3
20260505114455 15 179 1.6 3.2 0.00 0.00 0.00 88 1018.2
20260505113952 15 75 0.0 1.6 0.00 0.00 0.00 91 1018.1
20260505113449 14 77 0.0 0.0 0.00 0.00 0.00 93 1018.2
20260505112944 14 107 0.0 0.0 0.00 0.00 0.00 94 1018.1
20260505112441 13 67 0.0 0.0 0.00 0.00 0.00 95 1018.2
20260505111937 13 68 0.0 0.0 0.00 0.00 0.00 96 1018.2
20260505111431 12 68 0.0 0.0 0.00 0.00 0.00 96 1018.0
20260505110928 11 68 0.0 0.0 0.00 0.00 0.00 96 1017.9
20260505110425 11 67 0.0 0.0 0.00 0.00 0.00 95 1017.9
20260505101856 10 75 0.0 0.0 0.00 0.00 0.00 94 1017.5
20260505101351 10 75 0.0 0.0 0.00 0.00 0.00 94 1017.2
20260505100847 10 74 0.0 0.0 0.00 0.00 0.00 94 1017.4
20260505100344 10 74 0.0 0.0 0.00 0.00 0.00 94 1017.0
20260505095840 10 65 0.0 0.0 0.00 0.00 0.00 93 1017.0
20260505095337 10 122 0.0 0.0 0.00 0.00 0.00 93 1017.0
20260505094833 10 123 0.0 0.0 0.00 0.00 0.00 93 1017.0
20260505094331 11 123 0.0 0.0 0.00 0.00 0.00 93 1016.9
20260505093826 11 123 0.0 0.0 0.00 0.00 0.00 93 1016.8
20260505093324 11 123 0.0 0.0 0.00 0.00 0.00 93 1016.8
20260505092820 11 123 0.0 0.0 0.00 0.00 0.00 93 1016.9
20260505092319 11 123 0.0 0.0 0.00 0.00 0.00 92 1016.7
20260505091816 11 123 0.0 0.0 0.00 0.00 0.00 92 1016.8
20260505091314 11 123 0.0 0.0 0.00 0.00 0.00 92 1016.7
20260505090811 11 123 0.0 0.0 0.00 0.00 0.00 92 1016.8
20260505090310 11 123 0.0 0.0 0.00 0.00 0.00 92 1016.8
20260505085806 11 123 0.0 0.0 0.00 0.00 0.00 92 1016.5
20260505085305 11 123 0.0 0.0 0.00 0.00 0.00 91 1016.7
20260505084801 11 123 0.0 0.0 0.00 0.00 0.00 91 1016.7
20260505084300 11 123 0.0 0.0 0.00 0.00 0.00 90 1016.5
20260505083757 11 123 0.0 0.0 0.00 0.00 0.00 90 1016.5
20260505083253 11 123 0.0 0.0 0.00 0.00 0.00 90 1016.4
20260505082750 12 123 0.0 0.0 0.00 0.00 0.00 90 1016.5
20260505082248 11 123 0.0 0.0 0.00 0.00 0.00 89 1016.6
20260505081743 12 123 0.0 0.0 0.00 0.00 0.00 89 1016.5
20260505081240 12 123 0.0 0.0 0.00 0.00 0.00 88 1016.5
20260505080737 12 123 0.0 0.0 0.00 0.00 0.00 87 1016.7
20260505080232 12 123 0.0 0.0 0.00 0.00 0.00 87 1016.5
20260505075728 12 123 0.0 0.0 0.00 0.00 0.00 86 1016.5
20260505075226 13 125 1.6 1.6 0.00 0.00 0.00 86 1016.7
20260505074723 13 125 0.0 0.0 0.00 0.00 0.00 86 1016.5
20260505074220 13 183 1.6 3.2 0.00 0.00 0.00 86 1016.3
20260505073717 13 73 0.0 0.0 0.00 0.00 0.00 86 1016.3
20260505073215 13 75 0.0 0.0 0.00 0.00 0.00 85 1016.4
20260505072711 13 102 0.0 1.6 0.00 0.00 0.00 85 1016.4
20260505072208 13 184 1.6 3.2 0.00 0.00 0.00 85 1016.3
20260505071703 13 110 0.0 0.0 0.00 0.00 0.00 85 1016.5
20260505071201 13 132 3.2 3.2 0.00 0.00 0.00 85 1016.4
20260505070658 13 168 1.6 1.6 0.00 0.00 0.00 85 1016.3
20260505070154 13 91 0.0 0.0 0.00 0.00 0.00 85 1016.4
20260505065650 13 102 0.0 1.6 0.00 0.00 0.00 84 1016.5
20260505065147 13 141 1.6 1.6 0.00 0.00 0.00 84 1016.4
20260505064644 13 43 0.0 0.0 0.00 0.00 0.00 84 1016.6
20260505064142 13 90 1.6 1.6 0.00 0.00 0.00 84 1016.4
20260505063639 13 90 0.0 0.0 0.00 0.00 0.00 83 1016.5
20260505063135 13 84 0.0 0.0 0.00 0.00 0.00 83 1016.6
20260505062633 13 142 1.6 1.6 0.00 0.00 0.00 83 1016.5
20260505062130 13 125 1.6 1.6 0.00 0.00 0.00 83 1016.6
20260505061626 13 96 0.0 0.0 0.00 0.00 0.00 82 1016.6
20260505061124 13 88 0.0 0.0 0.00 0.00 0.00 82 1016.6
20260505060622 13 162 0.0 1.6 0.00 0.00 0.00 81 1016.6
20260505060118 14 77 0.0 0.0 0.00 0.00 0.00 80 1016.8
20260505055613 14 107 1.6 1.6 0.00 0.00 0.00 80 1017.0
20260505055110 14 112 1.6 1.6 0.00 0.00 0.00 80 1016.9
20260505054607 14 57 0.0 0.0 0.00 0.00 0.00 79 1017.0
20260505054106 14 100 0.0 0.0 0.00 0.00 0.00 79 1016.9
20260505053602 15 127 1.6 1.6 0.00 0.00 0.00 78 1017.0
20260505053059 15 93 0.0 1.6 0.00 0.00 0.00 77 1017.0
20260505052556 15 99 0.0 1.6 0.00 0.00 0.00 77 1016.9
20260505052054 15 200 3.2 3.2 0.00 0.00 0.00 76 1016.8
20260505051550 15 132 1.6 1.6 0.00 0.00 0.00 76 1016.9
20260505051048 15 176 1.6 3.2 0.00 0.00 0.00 76 1016.9
20260505050546 15 226 3.2 3.2 0.00 0.00 0.00 75 1016.8
20260505041514 15 163 3.2 4.8 0.00 0.00 0.00 73 1017.0
20260505041012 15 240 3.2 4.8 0.00 0.00 0.00 73 1017.2
20260505040509 15 164 1.6 3.2 0.00 0.00 0.00 73 1017.1
20260505040006 15 219 4.8 4.8 0.00 0.00 0.00 73 1017.0
20260505035501 15 153 3.2 4.8 0.00 0.00 0.00 73 1017.1
20260505034959 15 219 6.4 6.4 0.00 0.00 0.00 73 1017.1
20260505034455 15 142 3.2 3.2 0.00 0.00 0.00 73 1017.1
20260505033952 15 123 3.2 3.2 0.00 0.00 0.00 72 1017.1
20260505033449 15 134 1.6 1.6 0.00 0.00 0.00 72 1017.1
20260505032947 16 122 1.6 1.6 0.00 0.00 0.00 72 1017.2
20260505032444 15 187 3.2 3.2 0.00 0.00 0.00 72 1017.1
20260505031940 16 190 3.2 3.2 0.00 0.00 0.00 72 1017.1
20260505031437 15 167 1.6 3.2 0.00 0.00 0.00 72 1016.9
20260505030934 15 171 3.2 3.2 0.00 0.00 0.00 73 1017.2
20260505030430 15 170 1.6 1.6 0.00 0.00 0.00 73 1017.3
20260505025926 15 190 3.2 3.2 0.00 0.00 0.00 73 1017.3
20260505025424 15 178 3.2 3.2 0.00 0.00 0.00 74 1017.3
20260505024923 15 101 3.2 3.2 0.00 0.00 0.00 74 1017.3
20260505024420 15 210 1.6 1.6 0.00 0.00 0.00 74 1017.3
20260505023917 15 182 1.6 3.2 0.00 0.00 0.00 73 1017.5
20260505023414 15 141 1.6 3.2 0.00 0.00 0.00 73 1017.5
20260505022911 15 124 0.0 0.0 0.00 0.00 0.00 73 1017.5
20260505022408 16 117 0.0 0.0 0.00 0.00 0.00 72 1017.4
20260505021905 16 117 0.0 0.0 0.00 0.00 0.00 71 1017.2
20260505021401 16 200 3.2 3.2 0.00 0.00 0.00 71 1017.1
20260505020857 16 228 3.2 3.2 0.00 0.00 0.00 70 1017.2
20260505020353 16 94 0.0 0.0 0.00 0.00 0.00 70 1017.3
20260505015850 16 151 0.0 0.0 0.00 0.00 0.00 69 1017.3